EW2785 Weather Reports


Display with metric or nautical units.
time (UTC)temp
F
wind
direction
speed
MPH
gust
MPH
rain 1hr
in
rain 24hr
in
rain mn
in
humidity
%
barometer
mb
20260503014538 40 325 0.0 0.0 0.00 0.10 0.10 86 1012.4
20260503013023 40 325 0.0 0.0 0.00 0.10 0.10 86 1012.4
20260503011522 41 325 0.0 2.0 0.00 0.10 0.10 86 1012.5
20260503010021 41 261 0.0 0.0 0.00 0.10 0.10 85 1012.3
20260503004525 42 261 0.0 0.0 0.00 0.10 0.10 85 1012.2
20260503003016 42 261 0.0 0.0 0.00 0.10 0.10 85 1012.0
20260503001513 42 261 1.0 2.0 0.00 0.10 0.10 85 1012.0
20260503000011 43 310 0.0 4.0 0.00 0.10 0.10 85 1011.8
20260502234511 43 277 2.0 4.0 0.00 0.10 0.10 85 1011.7
20260502233012 43 244 0.0 6.0 0.00 0.10 0.10 85 1011.6
20260502231510 44 256 3.0 8.0 0.00 0.10 0.10 84 1011.6
20260502230012 45 262 3.0 9.0 0.00 0.10 0.10 83 1011.4
20260502224508 45 264 2.0 10.0 0.00 0.10 0.10 81 1011.2
20260502223007 46 225 0.0 2.0 0.00 0.10 0.10 78 1010.8
20260502221507 47 251 1.0 9.0 0.00 0.10 0.10 74 1010.5
20260502220007 48 5 2.0 11.0 0.00 0.10 0.10 73 1010.3
20260502214511 49 267 2.0 12.0 0.00 0.10 0.10 71 1010.2
20260502213006 51 254 2.0 10.0 0.00 0.10 0.10 66 1010.1
20260502211510 52 281 0.0 6.0 0.00 0.10 0.10 64 1010.0
20260502210013 53 188 1.0 5.0 0.00 0.10 0.10 59 1009.9
20260502204504 53 194 2.0 9.0 0.00 0.10 0.10 60 1009.8
20260502203002 53 174 0.0 5.0 0.00 0.10 0.10 63 1010.0
20260502201606 52 161 1.0 6.0 0.00 0.10 0.10 67 1010.1
20260502200058 52 131 1.0 6.0 0.00 0.10 0.10 68 1010.2
20260502194606 52 344 1.0 4.0 0.00 0.10 0.10 73 1010.4
20260502193053 50 313 3.0 6.0 0.00 0.10 0.10 73 1010.7
20260502191552 50 113 1.0 4.0 0.00 0.10 0.10 77 1010.7
20260502190048 48 80 1.0 4.0 0.01 0.10 0.10 80 1010.9
20260502184553 48 82 1.0 6.0 0.01 0.10 0.10 81 1011.1
20260502183056 46 76 1.0 5.0 0.01 0.10 0.10 83 1011.3
20260502181545 46 173 0.0 4.0 0.01 0.10 0.10 85 1011.5
20260502163043 46 271 1.0 7.0 0.00 0.09 0.09 85 1011.3
20260502161540 45 336 3.0 8.0 0.00 0.09 0.09 86 1011.3
20260502151538 45 330 0.0 8.0 0.00 0.09 0.09 89 1011.5
20260502123020 43 78 0.0 1.0 0.00 0.09 0.09 92 1011.5
20260502121517 43 78 0.0 0.0 0.01 0.09 0.09 92 1011.5
20260502114516 43 78 0.0 1.0 0.01 0.09 0.09 92 1011.3
20260502113016 43 79 0.0 1.0 0.02 0.09 0.09 92 1011.2
20260502111515 43 79 0.0 0.0 0.01 0.08 0.08 92 1011.3
20260502110014 42 79 0.0 0.0 0.01 0.08 0.08 92 1011.2
20260502104520 42 78 0.0 0.0 0.02 0.08 0.08 91 1011.2
20260502103015 42 78 0.0 0.0 0.03 0.07 0.07 91 1011.0
20260502101530 42 78 0.0 0.0 0.03 0.07 0.07 91 1010.9
20260502091510 42 78 0.0 0.0 0.00 0.04 0.04 91 1011.1
20260502071501 43 78 1.0 3.0 0.01 0.01 0.01 89 1011.0
20260502070130 43 81 2.0 6.0 0.00 0.00 0.00 88 1011.4
20260502064600 43 105 2.0 6.0 0.00 0.00 0.00 88 1011.4
20260502063100 43 95 2.0 5.0 0.00 0.00 0.00 87 1011.4
20260502061606 43 286 0.0 0.0 0.00 0.00 0.00 86 1011.4
20260502060057 43 286 0.0 0.0 0.00 0.00 0.00 86 1011.4
20260502054558 43 286 0.0 0.0 0.00 0.00 0.00 85 1011.5
20260502053055 43 286 0.0 1.0 0.00 0.00 0.00 85 1011.5
20260502051620 43 286 0.0 0.0 0.00 0.00 0.00 84 1011.4
20260502050056 43 286 0.0 0.0 0.00 0.00 0.00 83 1011.7
20260502044550 43 286 0.0 0.0 0.00 0.00 0.00 82 1011.6
20260502043052 43 286 0.0 0.0 0.00 0.00 0.00 82 1011.5
20260502041548 43 286 0.0 0.0 0.00 0.00 0.00 81 1011.5
20260502040055 43 286 0.0 0.0 0.00 0.00 0.00 81 1011.4
20260502034546 43 286 0.0 1.0 0.00 0.00 0.00 81 1011.4
20260502033045 43 320 0.0 1.0 0.00 0.00 0.00 81 1011.4
20260502031545 43 320 0.0 0.0 0.00 0.00 0.00 81 1011.5
20260502030045 43 281 0.0 1.0 0.00 0.00 0.00 79 1011.3
20260502024544 43 281 0.0 0.0 0.00 0.00 0.00 77 1011.2
20260502023057 43 281 0.0 0.0 0.00 0.00 0.00 76 1011.0
20260502021543 43 281 0.0 1.0 0.00 0.00 0.00 76 1011.1
20260502020059 44 281 0.0 0.0 0.00 0.00 0.00 73 1011.1